GFSSW_prec_pwat_057.txt.gz
Precipitable_Water
0.46 0.45 0.44 0.43 0.42 0.41 0.39 0.40 0.43 0.45 0.46 0.48 0.52 0.53 0.54 0.54 0.58 0.53 0.34 0.38 0.34 0.43 0.77 1.07 1.17 1.17 1.30 1.33 1.58 1.62 1.12 0.97 1.01 1.06 1.21 1.49 1.42 1.64 1.66 1.50 1.53 1.63 1.56 1.65 1.79
0.45 0.45 0.44 0.43 0.44 0.42 0.41 0.40 0.42 0.44 0.44 0.44 0.49 0.56 0.54 0.55 0.43 0.35 0.38 0.49 0.46 0.52 0.66 0.65 0.73 1.00 0.97 1.18 1.38 1.36 1.08 1.05 1.21 1.31 1.31 1.45 1.45 1.49 1.40 1.32 1.31 1.43 1.61 1.71 1.75
0.40 0.41 0.43 0.43 0.45 0.45 0.42 0.40 0.42 0.43 0.43 0.42 0.49 0.48 0.53 0.55 0.28 0.38 0.67 0.72 0.57 0.54 0.69 0.77 0.74 0.79 0.77 1.05 1.16 1.20 1.09 1.25 1.29 1.36 1.53 1.40 1.38 1.49 1.24 1.13 1.27 1.22 1.42 1.57 1.58
0.38 0.37 0.38 0.37 0.40 0.44 0.43 0.41 0.41 0.41 0.41 0.45 0.50 0.49 0.51 0.42 0.18 0.51 0.72 0.73 0.66 0.55 0.66 0.54 0.56 0.53 0.56 0.65 1.04 0.93 1.28 1.35 1.36 1.37 1.35 1.28 1.31 1.28 1.27 1.24 1.37 1.34 1.45 1.51 1.43
0.37 0.35 0.36 0.35 0.37 0.39 0.40 0.40 0.41 0.39 0.40 0.50 0.51 0.53 0.42 0.20 0.15 0.53 0.78 0.71 0.69 0.59 0.49 0.40 0.40 0.46 0.44 0.59 0.80 0.88 1.16 1.29 1.38 1.39 1.36 1.37 1.20 1.22 1.25 1.40 1.41 1.41 1.44 1.42 1.44
0.35 0.35 0.35 0.34 0.36 0.36 0.37 0.39 0.40 0.40 0.42 0.51 0.50 0.54 0.33 0.12 0.31 0.44 0.72 0.75 0.69 0.59 0.45 0.46 0.40 0.45 0.42 0.56 0.61 0.91 0.93 1.14 1.31 1.33 1.34 1.19 1.14 1.21 1.24 1.36 1.28 1.30 1.31 1.34 1.38
0.35 0.34 0.35 0.34 0.37 0.35 0.34 0.34 0.35 0.39 0.47 0.47 0.56 0.53 0.28 0.19 0.42 0.47 0.58 0.63 0.74 0.62 0.44 0.53 0.49 0.38 0.34 0.40 0.57 0.73 0.82 1.01 1.14 1.24 1.23 1.24 1.01 1.01 1.21 1.29 1.22 1.18 1.22 1.27 1.34
0.36 0.34 0.34 0.34 0.37 0.36 0.33 0.31 0.35 0.43 0.47 0.56 0.60 0.50 0.25 0.41 0.45 0.39 0.48 0.60 0.74 0.66 0.51 0.47 0.45 0.43 0.31 0.39 0.40 0.44 0.66 0.79 1.05 1.13 1.19 1.13 0.83 1.09 1.27 1.21 1.14 1.15 1.14 1.20 1.24
0.37 0.35 0.34 0.35 0.36 0.37 0.33 0.35 0.43 0.48 0.52 0.61 0.49 0.37 0.18 0.33 0.24 0.27 0.38 0.44 0.60 0.70 0.47 0.47 0.42 0.33 0.29 0.25 0.28 0.39 0.39 0.67 0.86 1.07 1.12 1.05 0.91 1.17 1.32 1.22 1.09 1.09 0.99 1.13 1.18
0.38 0.36 0.35 0.38 0.37 0.38 0.37 0.42 0.48 0.48 0.51 0.55 0.46 0.24 0.21 0.20 0.26 0.29 0.37 0.54 0.55 0.50 0.39 0.34 0.37 0.27 0.22 0.19 0.12 0.29 0.34 0.58 0.75 0.96 0.99 0.95 0.96 1.14 1.26 1.21 1.12 1.12 1.03 0.99 1.10
0.39 0.36 0.38 0.42 0.40 0.39 0.34 0.27 0.20 0.17 0.21 0.16 0.17 0.17 0.19 0.25 0.29 0.30 0.46 0.46 0.51 0.40 0.26 0.31 0.24 0.21 0.21 0.21 0.21 0.30 0.38 0.44 0.79 0.98 0.89 0.85 0.89 1.06 1.22 1.20 1.13 1.17 1.16 1.05 1.00
0.43 0.40 0.42 0.47 0.42 0.40 0.36 0.25 0.28 0.31 0.16 0.22 0.21 0.20 0.23 0.25 0.22 0.25 0.42 0.38 0.35 0.31 0.33 0.28 0.20 0.26 0.29 0.24 0.20 0.21 0.31 0.40 0.62 0.86 0.91 0.84 0.84 1.03 1.16 1.15 1.15 1.17 1.18 1.15 1.04
0.48 0.44 0.46 0.50 0.40 0.38 0.33 0.33 0.42 0.35 0.15 0.17 0.19 0.17 0.19 0.23 0.21 0.22 0.29 0.37 0.36 0.29 0.29 0.26 0.27 0.31 0.28 0.25 0.20 0.17 0.21 0.32 0.45 0.68 0.81 0.83 0.78 0.90 1.11 1.19 1.23 1.22 1.28 1.28 1.20
0.52 0.44 0.45 0.48 0.32 0.39 0.33 0.41 0.43 0.34 0.10 0.13 0.15 0.17 0.20 0.20 0.18 0.25 0.33 0.31 0.29 0.34 0.33 0.32 0.37 0.32 0.29 0.25 0.25 0.17 0.19 0.29 0.39 0.48 0.48 0.78 0.52 0.73 0.90 0.98 1.06 1.13 1.20 1.22 1.23
0.54 0.43 0.44 0.52 0.42 0.37 0.43 0.49 0.38 0.24 0.05 0.14 0.17 0.23 0.22 0.17 0.19 0.18 0.36 0.30 0.25 0.29 0.37 0.30 0.30 0.32 0.29 0.29 0.30 0.23 0.22 0.16 0.32 0.41 0.47 0.54 0.57 0.61 0.75 0.83 0.91 1.05 1.16 1.23 1.30
0.57 0.42 0.46 0.49 0.46 0.47 0.51 0.44 0.30 0.13 0.06 0.14 0.19 0.17 0.17 0.19 0.19 0.22 0.26 0.32 0.33 0.28 0.34 0.35 0.45 0.39 0.36 0.37 0.36 0.33 0.28 0.23 0.16 0.29 0.31 0.42 0.47 0.47 0.59 0.68 0.86 1.05 1.13 1.19 1.29
0.55 0.42 0.48 0.50 0.37 0.52 0.51 0.31 0.14 0.09 0.17 0.15 0.17 0.19 0.19 0.18 0.18 0.21 0.21 0.19 0.18 0.15 0.18 0.27 0.31 0.40 0.44 0.36 0.39 0.35 0.28 0.20 0.16 0.12 0.16 0.35 0.42 0.42 0.57 0.72 0.87 0.90 1.03 1.12 1.27
0.48 0.44 0.47 0.49 0.51 0.52 0.42 0.25 0.11 0.15 0.16 0.20 0.20 0.21 0.18 0.20 0.19 0.20 0.19 0.17 0.24 0.26 0.20 0.17 0.15 0.31 0.41 0.39 0.36 0.33 0.33 0.21 0.16 0.11 0.10 0.25 0.28 0.36 0.58 0.64 0.82 0.93 1.00 1.11 1.20
0.44 0.42 0.43 0.45 0.51 0.50 0.35 0.19 0.16 0.19 0.23 0.21 0.21 0.18 0.18 0.22 0.22 0.21 0.21 0.21 0.26 0.25 0.17 0.20 0.18 0.35 0.40 0.46 0.43 0.38 0.30 0.33 0.25 0.25 0.16 0.14 0.25 0.39 0.51 0.58 0.71 0.79 0.95 0.99 1.12
0.32 0.34 0.39 0.49 0.53 0.44 0.31 0.23 0.25 0.32 0.31 0.28 0.20 0.23 0.21 0.23 0.23 0.23 0.22 0.29 0.29 0.31 0.29 0.23 0.14 0.27 0.35 0.44 0.46 0.41 0.42 0.34 0.33 0.18 0.14 0.18 0.17 0.17 0.31 0.45 0.58 0.73 0.81 0.93 1.07
0.29 0.28 0.40 0.58 0.55 0.40 0.27 0.29 0.34 0.41 0.41 0.34 0.30 0.28 0.28 0.27 0.27 0.25 0.25 0.31 0.33 0.31 0.34 0.28 0.20 0.17 0.30 0.32 0.33 0.39 0.39 0.40 0.39 0.30 0.18 0.16 0.19 0.27 0.27 0.38 0.47 0.61 0.75 0.88 0.98
0.33 0.25 0.55 0.61 0.40 0.41 0.34 0.38 0.42 0.41 0.45 0.41 0.40 0.35 0.31 0.31 0.29 0.29 0.27 0.30 0.39 0.35 0.27 0.33 0.25 0.15 0.17 0.37 0.47 0.47 0.44 0.40 0.35 0.31 0.31 0.27 0.21 0.32 0.33 0.34 0.42 0.54 0.74 0.89 0.94
0.42 0.43 0.62 0.61 0.34 0.35 0.40 0.39 0.42 0.40 0.42 0.40 0.38 0.40 0.39 0.34 0.31 0.34 0.34 0.42 0.42 0.35 0.31 0.36 0.27 0.16 0.11 0.21 0.39 0.41 0.46 0.46 0.42 0.44 0.35 0.29 0.24 0.33 0.38 0.39 0.48 0.54 0.71 0.85 0.94
0.48 0.37 0.48 0.51 0.48 0.40 0.36 0.36 0.36 0.46 0.44 0.46 0.43 0.44 0.40 0.37 0.38 0.33 0.33 0.40 0.43 0.38 0.41 0.40 0.27 0.19 0.14 0.20 0.37 0.38 0.43 0.46 0.42 0.35 0.37 0.39 0.38 0.33 0.30 0.36 0.42 0.56 0.61 0.67 0.81
0.54 0.44 0.48 0.35 0.39 0.41 0.41 0.39 0.37 0.37 0.46 0.47 0.41 0.41 0.39 0.33 0.35 0.33 0.36 0.36 0.40 0.43 0.44 0.38 0.22 0.22 0.19 0.22 0.29 0.33 0.38 0.42 0.39 0.40 0.35 0.39 0.42 0.44 0.42 0.37 0.41 0.55 0.58 0.59 0.69
0.50 0.47 0.50 0.43 0.45 0.41 0.41 0.38 0.39 0.41 0.43 0.39 0.39 0.41 0.43 0.35 0.35 0.29 0.32 0.34 0.33 0.40 0.38 0.40 0.25 0.24 0.16 0.18 0.25 0.26 0.36 0.40 0.41 0.41 0.41 0.42 0.42 0.52 0.54 0.54 0.50 0.55 0.61 0.64 0.69
0.63 0.64 0.52 0.45 0.43 0.40 0.40 0.42 0.42 0.47 0.45 0.47 0.44 0.40 0.40 0.39 0.43 0.43 0.42 0.40 0.39 0.36 0.35 0.32 0.27 0.22 0.13 0.25 0.26 0.23 0.32 0.37 0.42 0.46 0.43 0.38 0.46 0.58 0.57 0.58 0.52 0.53 0.59 0.65 0.71

GFSSW_prec_pwat_060.txt.gz
Precipitable_Water
0.43 0.44 0.44 0.44 0.45 0.46 0.43 0.40 0.41 0.44 0.46 0.47 0.49 0.56 0.58 0.55 0.54 0.51 0.35 0.39 0.35 0.41 0.94 1.11 1.23 1.28 1.34 1.32 1.57 1.61 1.13 0.99 1.05 1.08 1.24 1.48 1.44 1.62 1.71 1.52 1.58 1.66 1.64 1.73 1.83
0.40 0.39 0.39 0.39 0.41 0.45 0.45 0.42 0.39 0.42 0.45 0.45 0.48 0.50 0.54 0.54 0.44 0.35 0.43 0.46 0.44 0.55 0.81 0.85 0.87 1.05 1.03 1.17 1.38 1.36 1.13 1.13 1.23 1.31 1.28 1.43 1.51 1.54 1.48 1.40 1.41 1.49 1.67 1.77 1.77
0.38 0.38 0.37 0.37 0.39 0.42 0.42 0.42 0.40 0.42 0.43 0.43 0.50 0.48 0.47 0.51 0.31 0.38 0.61 0.74 0.58 0.55 0.80 0.91 0.90 0.88 0.83 1.08 1.21 1.24 1.15 1.28 1.32 1.43 1.47 1.44 1.47 1.59 1.40 1.22 1.32 1.34 1.48 1.63 1.65
0.35 0.35 0.36 0.35 0.39 0.40 0.40 0.39 0.40 0.42 0.42 0.44 0.50 0.49 0.49 0.41 0.17 0.47 0.73 0.75 0.79 0.57 0.74 0.69 0.71 0.65 0.69 0.76 1.06 0.97 1.24 1.39 1.40 1.44 1.47 1.40 1.43 1.39 1.40 1.34 1.46 1.45 1.54 1.57 1.53
0.34 0.34 0.35 0.34 0.38 0.39 0.39 0.37 0.37 0.39 0.40 0.48 0.50 0.50 0.45 0.24 0.19 0.50 0.74 0.81 0.80 0.55 0.61 0.57 0.53 0.55 0.50 0.65 0.81 0.89 1.18 1.34 1.44 1.43 1.39 1.38 1.30 1.30 1.36 1.46 1.49 1.46 1.50 1.50 1.47
0.35 0.35 0.35 0.35 0.38 0.38 0.37 0.35 0.35 0.36 0.41 0.49 0.50 0.52 0.35 0.15 0.33 0.47 0.72 0.72 0.62 0.53 0.60 0.52 0.45 0.49 0.46 0.55 0.59 0.81 0.92 1.16 1.33 1.36 1.36 1.29 1.23 1.26 1.31 1.44 1.36 1.39 1.41 1.46 1.43
0.35 0.34 0.34 0.37 0.39 0.37 0.35 0.33 0.34 0.37 0.45 0.49 0.56 0.50 0.30 0.24 0.41 0.44 0.63 0.67 0.75 0.63 0.54 0.52 0.51 0.43 0.39 0.46 0.64 0.69 0.72 0.87 1.04 1.28 1.27 1.32 1.04 1.07 1.30 1.29 1.25 1.33 1.38 1.40 1.41
0.36 0.35 0.35 0.40 0.40 0.38 0.36 0.36 0.40 0.44 0.46 0.55 0.61 0.54 0.24 0.35 0.41 0.37 0.52 0.57 0.83 0.80 0.62 0.66 0.52 0.44 0.34 0.40 0.40 0.43 0.56 0.58 0.89 1.14 1.26 1.18 0.96 1.15 1.26 1.19 1.17 1.24 1.25 1.30 1.36
0.39 0.37 0.36 0.44 0.41 0.40 0.39 0.45 0.48 0.48 0.54 0.57 0.53 0.39 0.19 0.33 0.24 0.26 0.38 0.51 0.63 0.62 0.64 0.59 0.47 0.40 0.39 0.22 0.23 0.33 0.34 0.50 0.92 1.12 1.15 1.10 1.01 1.18 1.24 1.23 1.16 1.17 1.14 1.21 1.30
0.47 0.43 0.41 0.49 0.42 0.41 0.40 0.46 0.48 0.51 0.50 0.54 0.44 0.29 0.21 0.20 0.26 0.30 0.37 0.55 0.55 0.55 0.40 0.37 0.35 0.30 0.27 0.20 0.13 0.21 0.31 0.39 0.72 0.98 1.08 1.04 1.05 1.13 1.18 1.18 1.16 1.16 1.08 1.16 1.23
0.55 0.49 0.45 0.52 0.45 0.43 0.41 0.35 0.31 0.23 0.24 0.18 0.18 0.17 0.20 0.24 0.28 0.31 0.50 0.45 0.51 0.52 0.30 0.30 0.27 0.20 0.23 0.24 0.22 0.24 0.29 0.34 0.66 1.01 0.99 0.98 1.01 1.13 1.19 1.19 1.12 1.05 1.07 1.03 1.16
0.64 0.54 0.46 0.53 0.46 0.43 0.43 0.31 0.30 0.32 0.20 0.22 0.22 0.21 0.22 0.25 0.21 0.27 0.48 0.40 0.31 0.29 0.33 0.27 0.20 0.27 0.30 0.27 0.25 0.21 0.26 0.35 0.46 0.83 0.98 0.97 0.92 1.05 1.19 1.17 1.15 1.14 1.15 1.05 1.09
0.72 0.62 0.47 0.53 0.46 0.44 0.39 0.37 0.45 0.40 0.21 0.20 0.20 0.19 0.20 0.23 0.20 0.22 0.35 0.41 0.37 0.28 0.27 0.23 0.26 0.28 0.26 0.27 0.25 0.21 0.17 0.28 0.40 0.58 0.83 0.96 0.84 0.91 1.09 1.24 1.21 1.28 1.28 1.28 1.13
0.73 0.67 0.50 0.53 0.41 0.43 0.39 0.48 0.49 0.40 0.16 0.20 0.18 0.19 0.21 0.21 0.19 0.26 0.34 0.32 0.33 0.34 0.31 0.27 0.32 0.29 0.26 0.25 0.25 0.20 0.21 0.19 0.33 0.45 0.46 0.84 0.60 0.76 0.91 1.07 1.14 1.22 1.23 1.23 1.26
0.65 0.58 0.46 0.51 0.44 0.41 0.46 0.50 0.44 0.30 0.09 0.19 0.19 0.23 0.23 0.20 0.20 0.21 0.32 0.29 0.24 0.27 0.38 0.30 0.27 0.30 0.26 0.28 0.29 0.24 0.26 0.22 0.19 0.34 0.45 0.57 0.60 0.70 0.85 0.89 1.05 1.14 1.18 1.21 1.27
0.54 0.46 0.44 0.46 0.47 0.47 0.51 0.45 0.31 0.16 0.10 0.15 0.19 0.18 0.19 0.20 0.19 0.23 0.24 0.29 0.31 0.25 0.29 0.31 0.45 0.36 0.32 0.35 0.35 0.33 0.28 0.25 0.22 0.16 0.23 0.39 0.48 0.54 0.78 0.81 0.94 1.11 1.16 1.20 1.25
0.48 0.42 0.43 0.46 0.36 0.49 0.49 0.33 0.17 0.11 0.18 0.16 0.17 0.18 0.18 0.18 0.18 0.21 0.22 0.21 0.18 0.17 0.16 0.23 0.25 0.34 0.42 0.34 0.37 0.32 0.27 0.21 0.18 0.13 0.08 0.23 0.36 0.46 0.67 0.87 0.91 0.97 1.10 1.20 1.28
0.43 0.43 0.44 0.46 0.48 0.49 0.43 0.27 0.14 0.17 0.16 0.19 0.18 0.19 0.15 0.18 0.19 0.20 0.20 0.18 0.23 0.19 0.17 0.19 0.16 0.22 0.33 0.37 0.32 0.30 0.29 0.21 0.16 0.15 0.12 0.13 0.19 0.33 0.62 0.77 0.88 0.94 1.12 1.24 1.28
0.41 0.40 0.41 0.44 0.48 0.47 0.36 0.21 0.19 0.20 0.24 0.21 0.20 0.17 0.17 0.20 0.20 0.20 0.21 0.20 0.25 0.22 0.15 0.20 0.17 0.33 0.35 0.38 0.41 0.36 0.29 0.30 0.24 0.25 0.19 0.16 0.14 0.29 0.48 0.58 0.70 0.78 1.00 1.08 1.15
0.32 0.36 0.37 0.50 0.55 0.46 0.33 0.26 0.27 0.32 0.31 0.28 0.20 0.23 0.20 0.22 0.22 0.23 0.22 0.30 0.29 0.28 0.26 0.23 0.14 0.24 0.35 0.39 0.36 0.40 0.40 0.29 0.30 0.21 0.18 0.22 0.18 0.15 0.34 0.44 0.56 0.64 0.80 0.95 1.10
0.39 0.40 0.49 0.63 0.58 0.44 0.31 0.32 0.35 0.40 0.40 0.34 0.30 0.28 0.28 0.27 0.28 0.27 0.26 0.31 0.34 0.33 0.31 0.27 0.21 0.15 0.21 0.25 0.24 0.29 0.32 0.40 0.35 0.30 0.20 0.20 0.21 0.25 0.24 0.30 0.45 0.58 0.78 0.83 1.04
0.45 0.34 0.60 0.63 0.40 0.38 0.33 0.36 0.39 0.38 0.43 0.39 0.38 0.35 0.33 0.32 0.30 0.29 0.29 0.31 0.40 0.37 0.29 0.33 0.25 0.19 0.17 0.25 0.41 0.40 0.40 0.37 0.34 0.29 0.28 0.28 0.25 0.35 0.34 0.32 0.40 0.55 0.71 0.81 0.92
0.44 0.43 0.60 0.53 0.32 0.32 0.36 0.35 0.38 0.37 0.38 0.37 0.35 0.37 0.37 0.33 0.30 0.33 0.35 0.41 0.44 0.37 0.33 0.39 0.24 0.18 0.17 0.17 0.24 0.26 0.35 0.42 0.43 0.41 0.33 0.29 0.28 0.42 0.44 0.45 0.38 0.44 0.63 0.78 0.86
0.47 0.37 0.45 0.46 0.44 0.36 0.34 0.33 0.33 0.42 0.40 0.42 0.40 0.41 0.37 0.35 0.37 0.33 0.33 0.38 0.44 0.40 0.43 0.37 0.26 0.24 0.17 0.22 0.26 0.32 0.38 0.45 0.42 0.37 0.35 0.37 0.40 0.42 0.42 0.42 0.47 0.55 0.61 0.70 0.83
0.50 0.40 0.44 0.35 0.36 0.38 0.38 0.36 0.33 0.32 0.40 0.41 0.37 0.37 0.35 0.32 0.33 0.33 0.37 0.37 0.38 0.41 0.40 0.39 0.27 0.28 0.26 0.25 0.25 0.25 0.29 0.32 0.32 0.41 0.37 0.39 0.42 0.50 0.47 0.42 0.45 0.53 0.63 0.63 0.64
0.47 0.46 0.49 0.41 0.43 0.39 0.38 0.35 0.33 0.35 0.36 0.34 0.33 0.37 0.39 0.34 0.35 0.34 0.36 0.36 0.34 0.39 0.37 0.43 0.31 0.30 0.25 0.23 0.20 0.19 0.23 0.28 0.31 0.39 0.41 0.44 0.44 0.55 0.63 0.62 0.63 0.61 0.70 0.69 0.74
0.61 0.61 0.51 0.42 0.41 0.39 0.37 0.36 0.37 0.42 0.43 0.45 0.44 0.42 0.37 0.42 0.48 0.46 0.44 0.42 0.42 0.37 0.39 0.38 0.33 0.28 0.22 0.22 0.22 0.19 0.21 0.27 0.30 0.37 0.40 0.36 0.45 0.56 0.57 0.64 0.68 0.61 0.64 0.68 0.74

GFSSW_prec_pwat_063.txt.gz
Precipitable_Water
0.39 0.39 0.38 0.39 0.40 0.43 0.46 0.44 0.42 0.42 0.45 0.46 0.46 0.52 0.53 0.55 0.51 0.48 0.38 0.42 0.39 0.37 0.75 0.88 1.00 1.18 1.34 1.30 1.45 1.62 1.15 1.01 1.06 1.08 1.26 1.37 1.41 1.59 1.62 1.56 1.58 1.64 1.71 1.77 1.85
0.36 0.36 0.37 0.38 0.39 0.41 0.41 0.43 0.41 0.41 0.44 0.45 0.44 0.49 0.48 0.51 0.42 0.38 0.54 0.49 0.41 0.40 0.69 0.80 0.85 1.12 1.08 1.17 1.29 1.36 1.16 1.14 1.39 1.33 1.38 1.36 1.43 1.49 1.42 1.44 1.47 1.57 1.74 1.82 1.77
0.35 0.35 0.35 0.36 0.38 0.39 0.39 0.39 0.40 0.40 0.41 0.43 0.45 0.49 0.47 0.48 0.35 0.41 0.55 0.53 0.55 0.47 0.85 0.99 0.99 1.00 0.92 1.08 1.18 1.29 1.20 1.34 1.35 1.43 1.41 1.37 1.44 1.55 1.52 1.30 1.38 1.42 1.56 1.69 1.65
0.35 0.34 0.35 0.35 0.37 0.39 0.37 0.37 0.38 0.38 0.39 0.41 0.47 0.49 0.50 0.44 0.25 0.52 0.55 0.67 0.68 0.53 0.86 0.89 0.86 0.74 0.76 0.82 1.10 1.06 1.22 1.36 1.48 1.48 1.39 1.36 1.48 1.43 1.45 1.46 1.44 1.56 1.61 1.67 1.58
0.34 0.34 0.34 0.36 0.38 0.38 0.37 0.34 0.35 0.35 0.37 0.41 0.49 0.49 0.48 0.29 0.27 0.45 0.62 0.75 0.74 0.45 0.63 0.74 0.69 0.69 0.62 0.75 0.90 0.98 1.17 1.35 1.43 1.44 1.45 1.58 1.33 1.36 1.45 1.53 1.45 1.49 1.57 1.57 1.55
0.35 0.34 0.34 0.37 0.40 0.39 0.37 0.34 0.33 0.34 0.37 0.45 0.51 0.51 0.41 0.25 0.35 0.41 0.66 0.72 0.68 0.50 0.58 0.71 0.62 0.68 0.62 0.61 0.66 0.80 0.95 1.19 1.37 1.35 1.39 1.23 1.26 1.30 1.46 1.47 1.43 1.43 1.45 1.54 1.52
0.38 0.37 0.35 0.37 0.41 0.38 0.38 0.37 0.37 0.38 0.43 0.48 0.53 0.55 0.39 0.32 0.37 0.41 0.65 0.65 0.69 0.56 0.58 0.72 0.64 0.59 0.52 0.48 0.58 0.68 0.70 0.86 1.04 1.30 1.29 1.30 1.27 1.10 1.60 1.37 1.30 1.33 1.41 1.48 1.49
0.46 0.44 0.42 0.41 0.43 0.39 0.38 0.41 0.43 0.42 0.45 0.52 0.59 0.61 0.31 0.33 0.40 0.36 0.53 0.63 0.66 0.62 0.60 0.78 0.60 0.49 0.45 0.44 0.48 0.52 0.59 0.59 0.84 1.06 1.23 1.22 0.96 1.10 1.35 1.26 1.18 1.28 1.39 1.45 1.46
0.56 0.53 0.48 0.46 0.47 0.42 0.40 0.41 0.46 0.45 0.52 0.56 0.57 0.49 0.25 0.32 0.28 0.29 0.50 0.50 0.67 0.75 0.66 0.68 0.59 0.42 0.43 0.30 0.28 0.36 0.37 0.48 0.63 0.82 1.03 1.12 1.04 1.46 1.36 1.24 1.17 1.21 1.30 1.37 1.40
0.65 0.61 0.53 0.49 0.50 0.44 0.44 0.44 0.54 0.47 0.54 0.57 0.46 0.35 0.23 0.22 0.27 0.29 0.33 0.54 0.62 0.50 0.56 0.55 0.47 0.35 0.37 0.29 0.15 0.19 0.30 0.37 0.49 0.95 0.97 1.04 1.09 1.31 1.45 1.25 1.19 1.13 1.20 1.24 1.32
0.77 0.71 0.61 0.53 0.53 0.47 0.47 0.49 0.47 0.40 0.35 0.25 0.25 0.21 0.22 0.25 0.29 0.37 0.47 0.52 0.55 0.44 0.30 0.42 0.31 0.22 0.30 0.34 0.27 0.23 0.23 0.32 0.47 0.91 0.97 0.91 1.07 1.17 1.31 1.25 1.18 1.14 1.08 1.13 1.21
0.78 0.72 0.64 0.56 0.53 0.51 0.53 0.37 0.33 0.39 0.25 0.23 0.22 0.21 0.22 0.25 0.22 0.32 0.53 0.38 0.40 0.36 0.36 0.28 0.22 0.29 0.30 0.30 0.27 0.23 0.23 0.27 0.40 0.63 0.88 0.90 0.93 1.12 1.19 1.09 1.12 1.11 1.09 1.09 1.21
0.76 0.70 0.60 0.53 0.49 0.54 0.46 0.43 0.46 0.42 0.25 0.27 0.22 0.21 0.21 0.22 0.23 0.24 0.37 0.46 0.37 0.35 0.37 0.27 0.27 0.30 0.30 0.28 0.25 0.24 0.22 0.25 0.35 0.46 0.80 0.89 0.83 1.02 1.42 1.14 1.20 1.25 1.22 1.13 1.13
0.65 0.62 0.52 0.51 0.50 0.46 0.48 0.49 0.51 0.44 0.24 0.25 0.22 0.21 0.22 0.21 0.20 0.26 0.34 0.37 0.37 0.34 0.30 0.29 0.33 0.29 0.27 0.25 0.28 0.23 0.27 0.24 0.28 0.39 0.39 0.70 0.63 0.92 1.03 1.12 1.11 1.20 1.22 1.19 1.11
0.53 0.49 0.41 0.45 0.43 0.44 0.45 0.52 0.48 0.38 0.16 0.24 0.24 0.27 0.25 0.20 0.27 0.24 0.30 0.29 0.25 0.29 0.36 0.31 0.30 0.28 0.27 0.26 0.28 0.26 0.30 0.24 0.21 0.22 0.39 0.49 0.52 0.89 1.04 1.08 1.02 1.17 1.24 1.27 1.27
0.50 0.44 0.44 0.51 0.51 0.44 0.48 0.47 0.36 0.20 0.15 0.20 0.22 0.20 0.20 0.22 0.21 0.25 0.24 0.24 0.27 0.25 0.29 0.33 0.45 0.36 0.30 0.35 0.32 0.33 0.28 0.27 0.24 0.20 0.16 0.32 0.45 0.57 0.89 0.91 0.98 1.10 1.24 1.28 1.33
0.44 0.43 0.44 0.48 0.40 0.45 0.45 0.37 0.20 0.12 0.25 0.21 0.20 0.18 0.19 0.21 0.20 0.21 0.22 0.22 0.17 0.17 0.14 0.18 0.22 0.37 0.43 0.32 0.34 0.33 0.28 0.21 0.19 0.17 0.13 0.16 0.31 0.46 0.73 0.91 1.17 1.01 1.14 1.27 1.32
0.40 0.41 0.48 0.45 0.46 0.45 0.41 0.29 0.17 0.24 0.20 0.22 0.17 0.19 0.16 0.21 0.20 0.20 0.20 0.19 0.27 0.21 0.18 0.18 0.18 0.23 0.29 0.33 0.33 0.31 0.29 0.23 0.17 0.16 0.14 0.17 0.13 0.29 0.63 0.88 0.94 1.20 1.19 1.21 1.25
0.38 0.42 0.44 0.44 0.47 0.46 0.36 0.26 0.27 0.25 0.26 0.22 0.22 0.17 0.17 0.20 0.17 0.19 0.18 0.18 0.24 0.28 0.17 0.14 0.16 0.34 0.34 0.32 0.34 0.33 0.30 0.29 0.26 0.28 0.21 0.19 0.17 0.17 0.38 0.61 0.83 1.16 1.18 1.35 1.24
0.42 0.39 0.43 0.58 0.58 0.49 0.37 0.31 0.33 0.35 0.33 0.29 0.22 0.23 0.21 0.23 0.21 0.21 0.21 0.26 0.28 0.30 0.27 0.21 0.17 0.29 0.31 0.38 0.39 0.37 0.41 0.28 0.27 0.22 0.19 0.22 0.22 0.18 0.18 0.33 0.56 0.79 0.97 1.06 1.54
0.54 0.48 0.53 0.61 0.57 0.46 0.34 0.36 0.36 0.39 0.37 0.32 0.31 0.29 0.29 0.27 0.28 0.26 0.27 0.29 0.31 0.32 0.31 0.24 0.21 0.19 0.19 0.25 0.27 0.29 0.32 0.40 0.38 0.28 0.24 0.22 0.23 0.31 0.26 0.25 0.42 0.57 0.79 0.95 1.14
0.50 0.38 0.56 0.57 0.44 0.38 0.35 0.35 0.36 0.36 0.39 0.36 0.35 0.33 0.31 0.33 0.31 0.31 0.29 0.33 0.38 0.36 0.30 0.33 0.24 0.19 0.19 0.21 0.23 0.25 0.26 0.25 0.35 0.33 0.30 0.26 0.28 0.39 0.37 0.32 0.42 0.55 0.66 0.79 0.91
0.44 0.44 0.53 0.53 0.37 0.33 0.36 0.34 0.34 0.34 0.36 0.35 0.33 0.34 0.35 0.31 0.29 0.33 0.34 0.40 0.40 0.38 0.33 0.36 0.28 0.22 0.20 0.22 0.24 0.20 0.27 0.36 0.34 0.33 0.35 0.27 0.28 0.43 0.43 0.40 0.37 0.40 0.54 0.73 0.85
0.50 0.43 0.47 0.45 0.42 0.35 0.34 0.33 0.33 0.37 0.35 0.36 0.34 0.35 0.32 0.29 0.32 0.30 0.31 0.39 0.43 0.39 0.44 0.40 0.34 0.29 0.21 0.24 0.29 0.24 0.23 0.32 0.34 0.31 0.33 0.37 0.36 0.40 0.47 0.49 0.50 0.49 0.52 0.65 0.79
0.51 0.39 0.44 0.34 0.37 0.39 0.39 0.35 0.32 0.31 0.37 0.37 0.34 0.33 0.32 0.28 0.30 0.29 0.33 0.34 0.37 0.38 0.38 0.36 0.28 0.29 0.27 0.29 0.31 0.26 0.28 0.30 0.29 0.39 0.39 0.39 0.45 0.46 0.48 0.52 0.58 0.65 0.65 0.69 0.81
0.48 0.46 0.46 0.43 0.42 0.38 0.35 0.33 0.32 0.34 0.36 0.34 0.33 0.37 0.37 0.34 0.35 0.34 0.40 0.40 0.37 0.41 0.39 0.36 0.27 0.32 0.33 0.35 0.29 0.26 0.25 0.27 0.34 0.34 0.43 0.49 0.49 0.60 0.63 0.71 0.59 0.61 0.77 0.88 0.87
0.60 0.60 0.52 0.41 0.39 0.34 0.32 0.34 0.35 0.40 0.41 0.43 0.41 0.39 0.38 0.41 0.44 0.46 0.46 0.43 0.40 0.35 0.37 0.37 0.38 0.30 0.25 0.30 0.28 0.23 0.24 0.22 0.21 0.24 0.26 0.34 0.46 0.64 0.65 0.75 0.84 0.77 0.87 0.90 0.90

GFSSW_prec_pwat_069.txt.gz
Precipitable_Water
0.36 0.35 0.34 0.35 0.36 0.41 0.40 0.42 0.41 0.41 0.43 0.44 0.44 0.44 0.49 0.53 0.48 0.42 0.30 0.42 0.33 0.50 0.49 0.60 0.62 0.91 1.32 1.39 1.54 1.56 1.18 1.17 1.33 1.14 1.17 1.63 1.54 1.65 1.83 1.70 1.62 1.70 1.61 1.71 1.71
0.34 0.34 0.34 0.34 0.35 0.40 0.40 0.39 0.40 0.38 0.39 0.41 0.43 0.43 0.49 0.51 0.39 0.30 0.35 0.53 0.46 0.46 0.33 0.43 0.44 0.80 0.92 1.16 1.38 1.25 1.06 1.25 1.42 1.43 1.44 1.50 1.62 1.46 1.49 1.61 1.58 1.63 1.75 1.78 1.66
0.35 0.35 0.36 0.36 0.34 0.38 0.41 0.39 0.38 0.37 0.37 0.38 0.40 0.42 0.50 0.49 0.32 0.38 0.40 0.53 0.55 0.42 0.33 0.50 0.60 0.71 0.81 1.05 1.19 1.22 1.04 1.28 1.35 1.42 1.68 1.57 1.71 1.85 1.43 1.34 1.46 1.49 1.57 1.64 1.60
0.40 0.40 0.39 0.38 0.37 0.36 0.40 0.39 0.38 0.37 0.38 0.38 0.39 0.44 0.49 0.42 0.27 0.54 0.62 0.55 0.54 0.41 0.30 0.51 0.65 0.64 0.77 0.82 1.09 1.01 1.17 1.22 1.40 1.52 1.65 1.54 1.80 1.69 1.69 1.53 1.73 1.62 1.62 1.58 1.53
0.50 0.49 0.47 0.44 0.41 0.38 0.40 0.38 0.38 0.38 0.40 0.38 0.42 0.50 0.41 0.29 0.29 0.52 0.52 0.51 0.54 0.40 0.26 0.48 0.61 0.68 0.67 0.84 0.98 0.97 1.05 1.13 1.30 1.57 1.56 1.65 1.45 1.34 1.57 1.76 1.69 1.67 1.60 1.53 1.52
0.58 0.60 0.58 0.53 0.48 0.41 0.42 0.39 0.39 0.39 0.43 0.44 0.48 0.52 0.30 0.24 0.44 0.52 0.59 0.51 0.44 0.45 0.31 0.56 0.68 0.79 0.78 0.79 0.81 0.90 0.94 0.98 1.12 1.38 1.53 1.42 1.40 1.44 1.54 1.79 1.67 1.56 1.47 1.51 1.46
0.67 0.65 0.65 0.64 0.58 0.47 0.45 0.41 0.39 0.39 0.45 0.47 0.56 0.55 0.43 0.42 0.48 0.52 0.55 0.54 0.50 0.52 0.37 0.69 0.85 0.85 0.81 0.72 0.80 0.75 0.64 0.74 0.84 1.16 1.25 1.52 1.35 1.35 1.73 1.79 1.56 1.44 1.42 1.45 1.43
0.76 0.75 0.70 0.65 0.62 0.54 0.49 0.44 0.41 0.38 0.48 0.53 0.61 0.58 0.43 0.49 0.33 0.34 0.38 0.54 0.69 0.58 0.44 0.71 0.85 0.79 0.71 0.74 0.67 0.54 0.49 0.47 0.68 0.87 1.12 1.26 1.15 1.53 1.82 1.78 1.48 1.35 1.35 1.42 1.40
0.79 0.78 0.76 0.70 0.62 0.55 0.51 0.47 0.46 0.44 0.50 0.57 0.54 0.64 0.47 0.41 0.30 0.33 0.37 0.49 0.64 0.61 0.48 0.60 0.60 0.62 0.58 0.44 0.43 0.47 0.33 0.36 0.46 0.68 0.81 1.09 1.07 1.48 1.66 1.49 1.59 1.33 1.33 1.37 1.38
0.76 0.77 0.76 0.70 0.65 0.56 0.51 0.48 0.56 0.49 0.54 0.61 0.52 0.41 0.50 0.29 0.28 0.25 0.40 0.50 0.54 0.54 0.49 0.47 0.49 0.49 0.49 0.35 0.20 0.32 0.31 0.33 0.36 0.54 0.65 0.90 1.03 1.27 1.50 1.49 1.58 1.58 1.32 1.33 1.38
0.66 0.67 0.69 0.67 0.61 0.58 0.61 0.50 0.53 0.55 0.41 0.44 0.47 0.41 0.30 0.32 0.33 0.31 0.30 0.47 0.56 0.45 0.35 0.43 0.37 0.35 0.41 0.38 0.31 0.32 0.32 0.32 0.34 0.44 0.53 0.78 0.98 1.10 1.29 1.20 1.42 1.68 1.36 1.30 1.38
0.59 0.55 0.54 0.54 0.52 0.56 0.61 0.51 0.47 0.47 0.38 0.35 0.38 0.38 0.28 0.26 0.24 0.35 0.40 0.33 0.44 0.41 0.46 0.43 0.30 0.40 0.44 0.40 0.36 0.30 0.29 0.29 0.33 0.34 0.45 0.66 0.83 0.98 1.10 1.26 1.49 1.76 1.57 1.24 1.27
0.54 0.50 0.47 0.42 0.46 0.54 0.51 0.50 0.52 0.49 0.33 0.29 0.33 0.26 0.23 0.21 0.24 0.35 0.42 0.46 0.42 0.43 0.38 0.28 0.36 0.41 0.40 0.37 0.29 0.30 0.29 0.27 0.28 0.31 0.48 0.76 0.78 0.88 1.08 1.17 1.40 1.62 1.81 1.45 1.21
0.50 0.48 0.43 0.44 0.49 0.53 0.53 0.56 0.53 0.50 0.28 0.32 0.30 0.26 0.27 0.23 0.20 0.33 0.39 0.39 0.40 0.37 0.38 0.35 0.35 0.34 0.36 0.32 0.32 0.24 0.31 0.29 0.25 0.25 0.24 0.53 0.49 0.83 0.95 1.06 1.25 1.43 1.62 1.49 1.36
0.49 0.46 0.39 0.51 0.46 0.46 0.47 0.50 0.48 0.41 0.25 0.33 0.29 0.32 0.28 0.23 0.26 0.25 0.29 0.27 0.32 0.36 0.37 0.32 0.32 0.35 0.32 0.32 0.30 0.26 0.31 0.29 0.29 0.26 0.24 0.29 0.28 0.53 0.96 0.95 0.94 1.16 1.45 1.40 1.42
0.47 0.43 0.43 0.51 0.52 0.50 0.48 0.45 0.42 0.27 0.23 0.27 0.30 0.27 0.23 0.25 0.25 0.32 0.31 0.29 0.29 0.27 0.30 0.30 0.38 0.34 0.35 0.37 0.36 0.33 0.29 0.28 0.28 0.27 0.20 0.25 0.25 0.43 0.63 0.69 0.90 1.05 1.13 1.33 1.41
0.47 0.36 0.39 0.48 0.43 0.47 0.43 0.41 0.31 0.25 0.28 0.24 0.24 0.25 0.25 0.24 0.24 0.24 0.24 0.23 0.17 0.15 0.19 0.23 0.25 0.31 0.35 0.32 0.33 0.32 0.27 0.19 0.18 0.18 0.15 0.23 0.23 0.23 0.49 0.80 0.85 0.92 1.07 1.27 1.39
0.45 0.36 0.42 0.43 0.48 0.48 0.46 0.45 0.34 0.33 0.27 0.27 0.24 0.21 0.21 0.28 0.25 0.26 0.23 0.23 0.25 0.23 0.20 0.19 0.17 0.22 0.33 0.35 0.34 0.29 0.28 0.22 0.14 0.14 0.16 0.24 0.17 0.18 0.36 0.55 0.77 1.01 1.05 1.34 1.44
0.51 0.51 0.52 0.53 0.53 0.53 0.49 0.41 0.40 0.38 0.38 0.32 0.26 0.20 0.17 0.20 0.21 0.24 0.23 0.21 0.28 0.32 0.24 0.22 0.21 0.27 0.27 0.28 0.34 0.34 0.28 0.32 0.25 0.22 0.22 0.25 0.26 0.28 0.29 0.42 0.59 0.80 0.98 1.25 1.39
0.56 0.55 0.55 0.60 0.55 0.57 0.48 0.42 0.40 0.45 0.43 0.36 0.25 0.25 0.26 0.26 0.24 0.25 0.22 0.29 0.30 0.33 0.34 0.29 0.18 0.28 0.29 0.29 0.29 0.27 0.32 0.30 0.30 0.18 0.17 0.21 0.22 0.24 0.32 0.38 0.54 0.70 0.88 1.22 1.45
0.69 0.55 0.54 0.57 0.65 0.54 0.42 0.44 0.41 0.42 0.40 0.31 0.31 0.29 0.31 0.31 0.32 0.30 0.30 0.32 0.31 0.29 0.30 0.27 0.24 0.18 0.27 0.27 0.28 0.29 0.27 0.31 0.33 0.29 0.23 0.19 0.19 0.29 0.40 0.42 0.49 0.64 0.78 1.01 1.17
0.62 0.40 0.55 0.65 0.48 0.51 0.38 0.38 0.41 0.35 0.38 0.33 0.33 0.29 0.29 0.31 0.30 0.31 0.31 0.32 0.37 0.35 0.29 0.31 0.25 0.18 0.17 0.27 0.32 0.31 0.28 0.27 0.27 0.26 0.30 0.31 0.26 0.35 0.41 0.45 0.55 0.71 0.82 0.96 1.14
0.57 0.51 0.57 0.57 0.37 0.38 0.41 0.37 0.37 0.32 0.32 0.31 0.32 0.32 0.31 0.27 0.23 0.27 0.30 0.36 0.36 0.33 0.32 0.33 0.26 0.20 0.18 0.18 0.27 0.28 0.29 0.29 0.29 0.30 0.26 0.26 0.26 0.43 0.50 0.56 0.65 0.87 1.15 1.17 0.96
0.54 0.41 0.47 0.49 0.44 0.39 0.38 0.36 0.34 0.37 0.33 0.32 0.31 0.32 0.29 0.27 0.29 0.25 0.26 0.30 0.34 0.33 0.35 0.31 0.26 0.22 0.17 0.21 0.28 0.27 0.29 0.28 0.28 0.23 0.23 0.26 0.27 0.31 0.46 0.51 0.61 0.72 0.89 0.90 1.07
0.55 0.42 0.44 0.31 0.36 0.33 0.38 0.36 0.30 0.28 0.34 0.35 0.34 0.32 0.29 0.24 0.26 0.28 0.32 0.34 0.37 0.42 0.36 0.32 0.20 0.21 0.21 0.22 0.25 0.29 0.27 0.28 0.27 0.26 0.23 0.25 0.26 0.33 0.51 0.56 0.63 0.75 0.92 1.08 1.12
0.48 0.51 0.48 0.40 0.42 0.38 0.37 0.33 0.30 0.29 0.32 0.31 0.30 0.33 0.34 0.28 0.33 0.29 0.34 0.36 0.33 0.38 0.37 0.40 0.28 0.30 0.24 0.25 0.23 0.26 0.30 0.30 0.30 0.27 0.25 0.25 0.26 0.44 0.47 0.63 0.61 0.73 0.80 1.03 1.19
0.64 0.67 0.57 0.46 0.40 0.36 0.36 0.36 0.35 0.37 0.39 0.40 0.37 0.36 0.36 0.39 0.43 0.42 0.42 0.40 0.36 0.32 0.32 0.34 0.33 0.30 0.23 0.30 0.29 0.21 0.28 0.29 0.30 0.29 0.27 0.22 0.27 0.42 0.41 0.47 0.60 0.81 0.87 0.95 1.18

GFSSW_prec_pwat_072.txt.gz
Precipitable_Water
0.37 0.37 0.38 0.37 0.36 0.35 0.40 0.41 0.41 0.41 0.40 0.42 0.44 0.45 0.46 0.51 0.50 0.43 0.27 0.38 0.35 0.75 0.66 0.69 0.69 0.83 1.13 1.23 1.58 1.67 1.22 1.17 1.29 1.20 1.30 1.61 1.59 1.81 1.85 1.66 1.65 1.73 1.54 1.51 1.68
0.37 0.39 0.40 0.40 0.40 0.37 0.38 0.40 0.40 0.41 0.40 0.39 0.41 0.43 0.43 0.50 0.39 0.29 0.29 0.39 0.46 0.51 0.42 0.45 0.42 0.89 0.92 1.10 1.38 1.33 1.15 1.18 1.36 1.41 1.44 1.58 1.69 1.72 1.67 1.60 1.50 1.66 1.67 1.67 1.68
0.45 0.45 0.44 0.43 0.42 0.40 0.38 0.40 0.39 0.39 0.40 0.40 0.39 0.41 0.47 0.47 0.32 0.39 0.50 0.37 0.57 0.44 0.38 0.40 0.44 0.77 0.78 1.01 1.17 1.24 1.09 1.24 1.36 1.48 1.49 1.59 1.73 1.85 1.68 1.47 1.52 1.57 1.54 1.61 1.60
0.54 0.54 0.52 0.50 0.48 0.44 0.40 0.40 0.38 0.40 0.40 0.40 0.39 0.42 0.48 0.39 0.18 0.50 0.52 0.45 0.61 0.47 0.34 0.34 0.45 0.57 0.65 0.76 1.06 1.04 1.18 1.22 1.28 1.52 1.58 1.55 1.64 1.49 1.73 1.71 1.82 1.71 1.61 1.59 1.55
0.74 0.65 0.61 0.58 0.54 0.51 0.44 0.41 0.39 0.40 0.42 0.43 0.43 0.49 0.40 0.24 0.19 0.53 0.55 0.59 0.59 0.48 0.28 0.30 0.41 0.52 0.57 0.75 0.97 1.01 1.04 1.13 1.19 1.43 1.57 1.64 1.50 1.45 1.49 1.88 1.93 1.83 1.63 1.54 1.54
0.79 0.75 0.71 0.66 0.63 0.57 0.50 0.43 0.40 0.41 0.44 0.46 0.47 0.54 0.28 0.15 0.45 0.49 0.55 0.51 0.44 0.45 0.29 0.30 0.46 0.64 0.68 0.77 0.84 1.00 0.96 0.93 0.85 1.21 1.44 1.38 1.53 1.56 1.67 1.89 1.73 1.71 1.55 1.55 1.52
0.76 0.80 0.77 0.71 0.68 0.64 0.58 0.46 0.43 0.41 0.43 0.50 0.55 0.57 0.40 0.31 0.52 0.54 0.50 0.49 0.44 0.48 0.31 0.33 0.67 0.67 0.82 0.75 0.91 0.87 0.73 0.73 0.84 1.12 1.24 1.39 1.33 1.50 1.68 1.83 1.68 1.61 1.50 1.55 1.55
0.72 0.76 0.76 0.75 0.70 0.65 0.60 0.49 0.46 0.46 0.43 0.54 0.62 0.58 0.33 0.60 0.56 0.48 0.49 0.56 0.61 0.58 0.40 0.55 0.80 0.80 0.71 0.82 0.74 0.61 0.62 0.51 0.68 0.97 1.24 1.22 1.00 1.54 1.70 1.68 1.56 1.54 1.44 1.50 1.52
0.68 0.70 0.71 0.70 0.70 0.67 0.57 0.50 0.50 0.51 0.50 0.56 0.51 0.56 0.41 0.55 0.30 0.30 0.40 0.40 0.59 0.59 0.50 0.67 0.74 0.57 0.57 0.50 0.47 0.52 0.41 0.48 0.60 0.81 0.89 1.09 1.05 1.37 1.49 1.48 1.42 1.40 1.38 1.38 1.44
0.61 0.61 0.61 0.62 0.65 0.64 0.56 0.56 0.61 0.62 0.56 0.67 0.56 0.38 0.41 0.30 0.30 0.28 0.34 0.43 0.56 0.57 0.45 0.54 0.53 0.47 0.46 0.40 0.26 0.37 0.41 0.40 0.39 0.59 0.71 0.82 0.94 1.18 1.46 1.42 1.36 1.38 1.41 1.30 1.38
0.56 0.54 0.52 0.52 0.56 0.56 0.65 0.57 0.49 0.51 0.49 0.30 0.44 0.41 0.37 0.34 0.36 0.29 0.39 0.44 0.54 0.49 0.31 0.48 0.39 0.33 0.39 0.43 0.41 0.38 0.36 0.36 0.45 0.50 0.48 0.57 0.78 1.01 1.29 1.28 1.38 1.50 1.54 1.30 1.32
0.54 0.53 0.49 0.47 0.43 0.51 0.63 0.51 0.47 0.49 0.38 0.36 0.42 0.42 0.42 0.37 0.25 0.32 0.37 0.40 0.43 0.32 0.39 0.40 0.30 0.39 0.45 0.48 0.40 0.31 0.31 0.32 0.41 0.45 0.48 0.61 0.73 1.07 1.22 1.27 1.34 1.35 1.47 1.35 1.38
0.52 0.52 0.49 0.43 0.47 0.52 0.48 0.49 0.58 0.54 0.36 0.33 0.36 0.33 0.31 0.26 0.23 0.35 0.37 0.39 0.40 0.37 0.39 0.34 0.36 0.44 0.41 0.40 0.36 0.33 0.30 0.29 0.34 0.43 0.57 0.62 0.78 0.97 1.18 1.32 1.38 1.49 1.46 1.45 1.36
0.49 0.48 0.45 0.52 0.50 0.53 0.46 0.51 0.54 0.51 0.28 0.30 0.30 0.26 0.26 0.24 0.23 0.40 0.48 0.41 0.42 0.40 0.42 0.38 0.36 0.37 0.36 0.35 0.38 0.29 0.33 0.32 0.31 0.29 0.25 0.60 0.49 0.95 1.08 1.08 1.25 1.41 1.37 1.51 1.53
0.48 0.44 0.38 0.60 0.51 0.45 0.50 0.52 0.49 0.42 0.24 0.34 0.30 0.33 0.29 0.24 0.27 0.29 0.35 0.37 0.36 0.36 0.33 0.31 0.31 0.31 0.32 0.30 0.34 0.28 0.35 0.30 0.29 0.28 0.27 0.40 0.27 0.43 0.82 0.84 1.02 1.30 1.31 1.39 1.45
0.48 0.42 0.39 0.47 0.50 0.45 0.49 0.50 0.42 0.29 0.21 0.29 0.31 0.28 0.26 0.26 0.27 0.30 0.29 0.30 0.28 0.31 0.31 0.29 0.34 0.29 0.31 0.35 0.36 0.37 0.31 0.29 0.28 0.27 0.20 0.26 0.26 0.31 0.48 0.60 0.92 1.20 1.35 1.43 1.47
0.46 0.37 0.36 0.44 0.36 0.46 0.51 0.47 0.31 0.23 0.28 0.25 0.26 0.27 0.24 0.24 0.25 0.26 0.25 0.23 0.20 0.17 0.23 0.24 0.28 0.31 0.29 0.29 0.35 0.33 0.27 0.19 0.17 0.17 0.16 0.27 0.26 0.26 0.39 0.50 0.76 0.97 1.21 1.41 1.55
0.48 0.48 0.48 0.45 0.47 0.55 0.58 0.48 0.28 0.32 0.29 0.32 0.28 0.25 0.24 0.27 0.27 0.26 0.25 0.24 0.28 0.25 0.20 0.19 0.17 0.29 0.30 0.27 0.28 0.32 0.29 0.21 0.13 0.14 0.17 0.23 0.22 0.27 0.35 0.42 0.59 0.72 0.96 1.34 1.42
0.62 0.56 0.56 0.48 0.60 0.66 0.52 0.36 0.33 0.36 0.36 0.32 0.29 0.23 0.25 0.28 0.27 0.26 0.27 0.28 0.30 0.30 0.21 0.19 0.19 0.28 0.28 0.32 0.31 0.32 0.28 0.33 0.24 0.24 0.20 0.21 0.23 0.26 0.36 0.40 0.48 0.59 0.82 1.03 1.16
0.62 0.57 0.52 0.59 0.67 0.60 0.44 0.37 0.41 0.45 0.44 0.40 0.29 0.29 0.25 0.26 0.25 0.26 0.27 0.34 0.32 0.33 0.34 0.27 0.19 0.27 0.27 0.31 0.32 0.31 0.35 0.28 0.27 0.19 0.19 0.21 0.20 0.22 0.34 0.43 0.49 0.66 0.68 0.93 1.08
0.64 0.48 0.58 0.64 0.65 0.53 0.39 0.39 0.41 0.47 0.48 0.38 0.35 0.30 0.30 0.28 0.30 0.29 0.28 0.33 0.35 0.32 0.33 0.29 0.24 0.25 0.27 0.27 0.26 0.27 0.27 0.28 0.28 0.27 0.21 0.18 0.20 0.43 0.47 0.54 0.61 0.67 0.66 0.83 1.08
0.59 0.38 0.60 0.62 0.41 0.42 0.34 0.36 0.39 0.37 0.40 0.35 0.33 0.32 0.31 0.33 0.32 0.30 0.30 0.31 0.37 0.35 0.29 0.31 0.25 0.17 0.24 0.30 0.33 0.32 0.30 0.28 0.22 0.22 0.27 0.27 0.26 0.46 0.59 0.61 0.67 0.72 0.68 0.82 1.11
0.52 0.48 0.57 0.57 0.34 0.34 0.36 0.35 0.38 0.32 0.33 0.33 0.31 0.31 0.33 0.30 0.30 0.33 0.32 0.37 0.35 0.31 0.28 0.30 0.24 0.16 0.14 0.22 0.29 0.28 0.31 0.32 0.30 0.27 0.23 0.21 0.25 0.38 0.53 0.66 0.80 0.82 0.89 0.96 1.01
0.52 0.39 0.41 0.43 0.42 0.39 0.35 0.33 0.31 0.37 0.33 0.36 0.33 0.32 0.28 0.27 0.30 0.30 0.32 0.36 0.39 0.36 0.35 0.29 0.22 0.18 0.13 0.17 0.22 0.23 0.29 0.31 0.30 0.24 0.25 0.26 0.28 0.32 0.41 0.51 0.69 0.88 0.89 0.90 0.96
0.51 0.38 0.43 0.32 0.34 0.35 0.37 0.35 0.28 0.27 0.34 0.36 0.32 0.30 0.27 0.23 0.25 0.24 0.29 0.31 0.36 0.37 0.36 0.30 0.19 0.20 0.20 0.22 0.21 0.19 0.22 0.28 0.28 0.29 0.26 0.29 0.29 0.34 0.43 0.48 0.63 0.83 0.95 1.06 1.16
0.44 0.44 0.45 0.40 0.41 0.34 0.35 0.33 0.28 0.30 0.30 0.28 0.27 0.31 0.32 0.27 0.27 0.25 0.30 0.30 0.29 0.34 0.33 0.35 0.23 0.25 0.20 0.25 0.23 0.18 0.18 0.20 0.27 0.31 0.31 0.32 0.33 0.52 0.53 0.69 0.74 0.82 0.90 0.99 1.22
0.62 0.63 0.48 0.40 0.36 0.32 0.31 0.32 0.33 0.36 0.37 0.38 0.36 0.31 0.31 0.34 0.39 0.39 0.40 0.39 0.36 0.33 0.31 0.29 0.26 0.23 0.18 0.25 0.23 0.15 0.15 0.18 0.20 0.34 0.40 0.32 0.42 0.51 0.49 0.67 0.71 0.80 0.94 1.01 1.07

GFSSW_prec_pwat_075.txt.gz
Precipitable_Water
0.41 0.42 0.41 0.42 0.41 0.40 0.38 0.40 0.42 0.41 0.42 0.42 0.42 0.43 0.44 0.46 0.49 0.43 0.28 0.33 0.40 0.72 0.80 0.86 0.82 0.84 1.23 1.31 1.58 1.70 1.25 1.13 1.20 1.20 1.34 1.65 1.61 1.82 1.93 1.71 1.62 1.60 1.45 1.57 1.66
0.52 0.48 0.48 0.46 0.45 0.44 0.41 0.38 0.40 0.41 0.41 0.42 0.42 0.41 0.43 0.49 0.36 0.28 0.32 0.36 0.53 0.71 0.58 0.54 0.54 0.73 0.96 1.13 1.36 1.37 1.15 1.15 1.40 1.41 1.43 1.56 1.69 1.64 1.71 1.60 1.54 1.64 1.63 1.71 1.61
0.75 0.69 0.57 0.53 0.51 0.48 0.46 0.40 0.39 0.39 0.41 0.42 0.40 0.40 0.45 0.48 0.27 0.37 0.51 0.36 0.62 0.67 0.46 0.49 0.49 0.70 0.79 0.98 1.19 1.32 1.11 1.25 1.35 1.44 1.58 1.57 1.64 1.69 1.66 1.57 1.58 1.47 1.51 1.61 1.51
0.77 0.78 0.75 0.65 0.60 0.53 0.50 0.45 0.40 0.39 0.40 0.43 0.43 0.42 0.47 0.39 0.16 0.48 0.47 0.36 0.55 0.53 0.37 0.37 0.43 0.63 0.72 0.77 1.05 1.10 1.22 1.27 1.27 1.43 1.47 1.50 1.60 1.49 1.67 1.70 1.86 1.71 1.67 1.60 1.47
0.74 0.78 0.79 0.74 0.68 0.64 0.55 0.49 0.41 0.39 0.40 0.45 0.45 0.47 0.40 0.21 0.16 0.56 0.50 0.55 0.59 0.49 0.30 0.30 0.34 0.50 0.55 0.76 0.96 1.09 1.12 1.12 1.13 1.16 1.37 1.56 1.47 1.42 1.49 1.86 1.97 1.73 1.69 1.63 1.55
0.67 0.72 0.74 0.76 0.73 0.65 0.64 0.56 0.44 0.41 0.41 0.46 0.50 0.54 0.29 0.11 0.44 0.57 0.52 0.57 0.51 0.47 0.32 0.32 0.35 0.49 0.52 0.72 0.83 1.08 1.01 0.97 0.94 1.02 1.31 1.34 1.44 1.46 1.58 1.81 1.85 1.69 1.61 1.65 1.57
0.65 0.68 0.69 0.71 0.71 0.71 0.62 0.60 0.51 0.45 0.43 0.47 0.56 0.55 0.36 0.24 0.56 0.57 0.53 0.55 0.43 0.47 0.38 0.29 0.51 0.59 0.69 0.76 0.93 0.93 0.80 0.79 0.91 1.08 1.20 1.40 1.23 1.32 1.61 1.74 1.70 1.63 1.53 1.59 1.57
0.62 0.63 0.65 0.66 0.67 0.67 0.65 0.58 0.52 0.52 0.49 0.51 0.62 0.56 0.29 0.62 0.64 0.51 0.49 0.53 0.55 0.52 0.46 0.33 0.57 0.62 0.68 0.84 0.75 0.67 0.69 0.56 0.88 1.04 1.25 1.24 0.95 1.39 1.60 1.67 1.64 1.56 1.43 1.50 1.55
0.60 0.56 0.57 0.60 0.64 0.65 0.61 0.57 0.56 0.57 0.57 0.57 0.50 0.49 0.35 0.62 0.41 0.40 0.50 0.51 0.56 0.60 0.47 0.44 0.55 0.59 0.57 0.53 0.52 0.57 0.51 0.53 0.53 0.98 1.07 1.02 0.96 1.24 1.50 1.36 1.48 1.39 1.32 1.40 1.49
0.56 0.56 0.54 0.53 0.58 0.60 0.56 0.65 0.72 0.70 0.67 0.64 0.57 0.38 0.40 0.31 0.32 0.31 0.50 0.49 0.51 0.54 0.43 0.46 0.55 0.47 0.47 0.43 0.32 0.41 0.48 0.53 0.48 0.75 0.73 0.74 0.81 1.10 1.35 1.45 1.41 1.42 1.40 1.27 1.34
0.49 0.54 0.54 0.51 0.50 0.53 0.65 0.59 0.48 0.51 0.54 0.29 0.34 0.37 0.39 0.40 0.36 0.28 0.34 0.42 0.57 0.52 0.31 0.42 0.44 0.39 0.44 0.46 0.47 0.48 0.47 0.47 0.53 0.49 0.46 0.52 0.64 0.92 1.16 1.36 1.41 1.45 1.41 1.31 1.26
0.47 0.48 0.51 0.47 0.45 0.59 0.62 0.46 0.48 0.50 0.39 0.40 0.40 0.43 0.43 0.42 0.30 0.35 0.40 0.40 0.44 0.36 0.36 0.38 0.37 0.48 0.52 0.52 0.45 0.41 0.38 0.40 0.46 0.54 0.52 0.62 0.56 0.91 1.07 1.23 1.35 1.42 1.45 1.41 1.32
0.49 0.44 0.43 0.47 0.58 0.57 0.49 0.47 0.60 0.55 0.36 0.39 0.37 0.36 0.32 0.32 0.25 0.32 0.37 0.41 0.40 0.36 0.32 0.32 0.41 0.53 0.46 0.42 0.40 0.36 0.29 0.40 0.42 0.44 0.65 0.61 0.61 0.82 1.03 1.28 1.29 1.42 1.52 1.50 1.44
0.50 0.44 0.42 0.52 0.48 0.52 0.45 0.52 0.54 0.48 0.27 0.32 0.36 0.36 0.34 0.26 0.22 0.36 0.46 0.44 0.41 0.37 0.41 0.39 0.46 0.41 0.39 0.37 0.39 0.30 0.35 0.43 0.40 0.33 0.26 0.61 0.41 0.73 0.91 1.02 1.15 1.30 1.43 1.48 1.49
0.49 0.44 0.41 0.55 0.48 0.45 0.50 0.53 0.48 0.39 0.20 0.29 0.31 0.33 0.28 0.23 0.32 0.34 0.44 0.44 0.38 0.38 0.43 0.36 0.31 0.36 0.33 0.33 0.40 0.31 0.37 0.34 0.39 0.32 0.29 0.34 0.41 0.49 0.99 0.97 1.00 1.15 1.39 1.53 1.55
0.47 0.42 0.37 0.45 0.46 0.43 0.49 0.51 0.40 0.26 0.20 0.27 0.29 0.28 0.27 0.25 0.29 0.30 0.29 0.32 0.39 0.37 0.34 0.33 0.34 0.31 0.34 0.39 0.39 0.39 0.34 0.33 0.31 0.29 0.22 0.26 0.26 0.28 0.51 0.58 0.71 1.04 1.31 1.51 1.52
0.44 0.43 0.36 0.42 0.32 0.46 0.53 0.45 0.30 0.23 0.32 0.27 0.27 0.27 0.26 0.26 0.26 0.27 0.26 0.25 0.22 0.20 0.26 0.28 0.30 0.30 0.29 0.26 0.32 0.33 0.29 0.20 0.18 0.19 0.19 0.28 0.25 0.26 0.39 0.52 0.58 0.66 1.03 1.38 1.52
0.59 0.52 0.50 0.47 0.57 0.61 0.58 0.38 0.26 0.32 0.30 0.34 0.31 0.27 0.25 0.26 0.26 0.27 0.27 0.25 0.29 0.24 0.21 0.22 0.21 0.27 0.31 0.27 0.28 0.29 0.29 0.20 0.13 0.15 0.20 0.28 0.23 0.28 0.40 0.50 0.53 0.67 0.81 1.24 1.44
0.64 0.54 0.54 0.62 0.65 0.66 0.46 0.27 0.30 0.34 0.37 0.31 0.30 0.28 0.29 0.30 0.29 0.30 0.30 0.30 0.31 0.30 0.21 0.20 0.21 0.31 0.31 0.31 0.33 0.32 0.29 0.32 0.23 0.24 0.20 0.23 0.29 0.36 0.48 0.52 0.59 0.61 0.71 0.85 1.20
0.59 0.56 0.56 0.66 0.66 0.59 0.43 0.34 0.38 0.43 0.41 0.37 0.27 0.31 0.26 0.29 0.30 0.29 0.31 0.35 0.33 0.34 0.34 0.26 0.19 0.28 0.30 0.32 0.33 0.32 0.35 0.27 0.26 0.18 0.17 0.21 0.27 0.33 0.45 0.52 0.64 0.66 0.72 0.77 1.01
0.60 0.45 0.56 0.64 0.62 0.45 0.36 0.38 0.42 0.46 0.45 0.37 0.33 0.30 0.30 0.27 0.29 0.28 0.31 0.36 0.38 0.35 0.35 0.31 0.25 0.25 0.27 0.27 0.26 0.30 0.29 0.30 0.30 0.29 0.21 0.19 0.26 0.44 0.52 0.61 0.61 0.69 0.75 0.75 0.83
0.53 0.37 0.58 0.61 0.43 0.39 0.33 0.36 0.37 0.40 0.46 0.41 0.40 0.37 0.32 0.30 0.28 0.27 0.29 0.33 0.39 0.38 0.30 0.32 0.27 0.23 0.26 0.32 0.32 0.29 0.29 0.30 0.26 0.25 0.28 0.29 0.24 0.36 0.41 0.50 0.63 0.66 0.70 0.80 0.88
0.47 0.42 0.56 0.55 0.32 0.32 0.36 0.36 0.37 0.28 0.33 0.33 0.30 0.32 0.37 0.34 0.28 0.31 0.33 0.40 0.39 0.34 0.30 0.32 0.25 0.20 0.24 0.29 0.31 0.27 0.30 0.29 0.31 0.31 0.27 0.25 0.25 0.35 0.43 0.46 0.62 0.71 0.74 0.79 0.90
0.44 0.33 0.38 0.44 0.45 0.36 0.34 0.32 0.30 0.36 0.33 0.35 0.33 0.33 0.29 0.29 0.35 0.33 0.33 0.38 0.39 0.37 0.36 0.32 0.26 0.21 0.17 0.22 0.28 0.26 0.29 0.30 0.28 0.26 0.26 0.26 0.28 0.36 0.45 0.50 0.60 0.74 0.88 0.93 1.03
0.39 0.34 0.39 0.31 0.35 0.37 0.39 0.33 0.27 0.27 0.33 0.34 0.29 0.29 0.26 0.22 0.26 0.29 0.34 0.36 0.37 0.38 0.34 0.28 0.18 0.21 0.22 0.23 0.23 0.23 0.23 0.26 0.27 0.29 0.27 0.27 0.28 0.41 0.55 0.59 0.64 0.76 0.92 0.99 1.06
0.40 0.39 0.39 0.34 0.35 0.32 0.34 0.31 0.28 0.30 0.30 0.29 0.26 0.29 0.28 0.23 0.26 0.24 0.29 0.30 0.28 0.32 0.29 0.31 0.22 0.24 0.19 0.22 0.19 0.16 0.19 0.21 0.21 0.24 0.27 0.32 0.31 0.51 0.62 0.73 0.64 0.70 0.80 0.92 1.06
0.57 0.55 0.40 0.35 0.31 0.27 0.28 0.30 0.30 0.33 0.35 0.36 0.33 0.30 0.29 0.32 0.37 0.37 0.36 0.35 0.34 0.30 0.28 0.27 0.24 0.20 0.14 0.20 0.16 0.11 0.15 0.17 0.19 0.24 0.22 0.21 0.37 0.52 0.55 0.61 0.64 0.68 0.75 0.81 0.93